Weather History for KUAO - November, 2013

Change the Weather History Date:

Saturday, November 30, 2013

  Actual Average Record
Temperature  
Mean Temperature 44 °F -  
Max Temperature 50 °F - 59 °F (2012)
Min Temperature 39 °F - 28 °F (2014)
Degree Days  
Heating Degree Days 20    
Month to date heating degree days 601  
Since 1 July heating degree days 1118  
Cooling Degree Days 0    
Month to date cooling degree days 0  
Year to date cooling degree days 426  
Moisture  
Dew Point 41 °F    
Average Humidity 90    
Maximum Humidity 100    
Minimum Humidity 80    
Precipitation  
Precipitation 0.02 in - 1.01 in (2010)
Month to date precipitation 3.29  
Year to date precipitation 25.25  
Sea Level Pressure  
Sea Level Pressure 30.36 in    
Wind  
Wind Speed 2 mph (SSE)    
Max Wind Speed 14 mph    
Max Gust Speed 18 mph    
Visibility 3 miles    
Events Rain    
T = Trace of Precipitation, MM = Missing Value Source: NWS Daily Summary

Daily Weather History Graph

Daily Weather History Graph

Search for Another Location

Airport or City:

Trip Planner

Search our weather history database for the weather conditions in past years. The results will help you decide how hot, cold, wet, or windy it might be!

Date:

Astronomy

Nov. 30, 2013 Rise Set
Actual Time 7:29 AM PST 4:30 PM PST
Civil Twilight 6:55 AM PST 5:03 PM PST
Nautical Twilight 6:19 AM PST 5:40 PM PST
Astronomical Twilight 5:43 AM PST 6:15 PM PST
Moon 4:40 AM PST (11/30) 3:03 PM PST (11/30)
Length of Visible Light 10h 07m
Length of Day
9h 01m
Waning Crescent, 6% of the Moon is Illuminated
Nov 30
Waning Crescent
Dec 2
New
Dec 9
First Quarter
Dec 17
Full
Dec 25
Last Quarter

Hourly Weather History & Observations

Time (PST) Temp. Windchill Dew Point Humidity Pressure Visibility Wind Dir Wind Speed Gust Speed Precip Events Conditions
12:53 AM 39.9 °F - 39.0 °F 97% 30.38 in 5.0 mi Calm Calm - N/A   Overcast
1:53 AM 39.9 °F 36.7 °F 39.0 °F 97% 30.39 in 3.0 mi SE 4.6 mph - 0.01 in   Overcast
2:38 AM 39.0 °F - 39.0 °F 100% 30.38 in 2.5 mi Calm Calm - N/A   Overcast
2:53 AM 39.0 °F - 39.0 °F 100% 30.39 in 2.5 mi Calm Calm - N/A   Overcast
3:53 AM 39.0 °F - 39.0 °F 100% 30.39 in 2.5 mi Calm Calm - N/A   Overcast
4:53 AM 39.0 °F - 39.0 °F 100% 30.39 in 2.5 mi Calm Calm - N/A   Overcast
5:29 AM 39.9 °F 37.8 °F 39.0 °F 97% 30.37 in 3.0 mi SE 3.5 mph - N/A   Overcast
5:53 AM 39.0 °F - 39.0 °F 100% 30.39 in 3.0 mi Calm Calm - N/A   Overcast
6:53 AM 39.9 °F - 39.0 °F 97% 30.40 in 2.0 mi Calm Calm - N/A   Overcast
7:36 AM 39.0 °F 36.8 °F 39.0 °F 100% 30.38 in 1.5 mi SSE 3.5 mph - N/A   Overcast
7:53 AM 39.9 °F - 39.0 °F 97% 30.40 in 1.2 mi Calm Calm - N/A   Overcast
8:22 AM 39.9 °F - 39.0 °F 97% 30.40 in 2.0 mi Calm Calm - N/A   Overcast
8:53 AM 39.9 °F - 39.0 °F 97% 30.41 in 2.0 mi Calm Calm - 0.00 in   Overcast
9:04 AM 39.9 °F 36.7 °F 39.0 °F 97% 30.40 in 1.8 mi SE 4.6 mph - N/A   Overcast
9:13 AM 39.9 °F - 39.9 °F 100% 30.41 in 2.0 mi Calm Calm - N/A   Overcast
9:53 AM 42.1 °F 40.2 °F 39.9 °F 92% 30.41 in 2.5 mi SSE 3.5 mph - N/A   Overcast
10:18 AM 42.1 °F - 41.0 °F 96% 30.40 in 3.0 mi Calm Calm - N/A   Overcast
10:53 AM 43.0 °F - 41.0 °F 93% 30.40 in 3.0 mi Calm Calm - N/A   Overcast
11:09 AM 43.0 °F - 41.0 °F 93% 30.40 in 3.0 mi Calm Calm - N/A   Overcast
11:53 AM 44.1 °F 42.5 °F 41.0 °F 89% 30.39 in 3.0 mi SE 3.5 mph - N/A   Overcast
12:53 PM 45.0 °F 43.5 °F 42.1 °F 90% 30.38 in 4.0 mi SW 3.5 mph - N/A   Overcast
1:53 PM 46.9 °F - 42.1 °F 83% 30.35 in 4.0 mi Calm Calm - N/A   Haze
2:53 PM 48.0 °F - 43.0 °F 83% 30.35 in 4.0 mi Calm Calm - N/A   Haze
3:53 PM 48.0 °F - 43.0 °F 83% 30.35 in 5.0 mi Calm Calm - N/A   Haze
4:53 PM 46.9 °F - 43.0 °F 86% 30.34 in 6.0 mi Calm Calm - N/A   Overcast
5:53 PM 46.9 °F - 43.0 °F 86% 30.33 in 3.0 mi Calm Calm - N/A   Overcast
6:53 PM 46.0 °F - 44.1 °F 93% 30.33 in 5.0 mi Calm Calm - N/A   Overcast
7:53 PM 45.0 °F 43.5 °F 43.0 °F 93% 30.31 in 4.0 mi South 3.5 mph - N/A   Overcast
8:53 PM 46.0 °F - 43.0 °F 89% 30.30 in 4.0 mi Calm Calm - N/A   Overcast
9:53 PM 45.0 °F - 44.1 °F 97% 30.27 in 4.0 mi Calm Calm - 0.00 in   Overcast
10:06 PM 46.0 °F - 44.1 °F 93% 30.26 in 3.0 mi Calm Calm - 0.01 in Rain Light Rain
10:53 PM 46.0 °F 43.9 °F 45.0 °F 96% 30.25 in 4.0 mi SW 4.6 mph - 0.01 in   Overcast
11:53 PM 50.0 °F - 46.0 °F 86% 30.24 in 10.0 mi South 12.7 mph - N/A   Overcast